Regional Weather Roundup
Issued by NWS

Home | Current Version | Previous Version | Graphics & Text | Print | Product List | Glossary On
Versions: 1 2 3 4 5 6 7 8 9 10 11 12 13 14 15 16 17 18 19 20 21 22 23 24 25 26 27 28 29 30 31 32 33 34 35 36 37 38 39 40 41 42 43 44 45 46 47 48 49 50
000
ASUS45 KABQ 051110
RWRNM
WEATHER ROUNDUP FOR NEW MEXICO
NATIONAL WEATHER SERVICE ALBUQUERQUE NM
400 AM MST THU MAR 05 2015

NOTE: "FAIR" MEANS FEW OR NO CLOUDS BELOW 12,000 FEET AGL WITH NO
       SIGNIFICANT WEATHER OR OBSTRUCTIONS TO VISION.

      THIS PRODUCT IS RELEASED AS TWO VERSIONS.  ONE VERSION NEAR
      THE TOP OF THE HOUR CONTAINING PRELIMINARY DATA FROM ALBUQUERQUE
      AND OTHER STATIONS.  A FINAL VERSION WITH ADDITIONAL DATA IS
      ISSUED ABOUT 10 MINUTES AFTER THE HOUR.

NMZ501-503-504-510>518-051200-
NORTHWEST PLATEAU/NORTHCENTRAL MOUNTAINS

CITY           SKY/WX    TMP DP  RH WIND       PRES   REMARKS
FARMINGTON     CLEAR     20  12  71 NE3       30.31R
LOS ALAMOS     PTCLDY    20  11  67 N3        30.29R
SANTA FE       CLEAR     15  11  83 N3        30.29S
TAOS           PTCLDY     9   1  72 E5        30.28S WCI   0
ANGEL FIRE     FAIR     -18 -24  75 CALM      30.24F

$$
NMZ402-403-502-505>509-051200-
WESTCENTRAL MOUNTAINS/SOUTHWEST MOUNTAINS

CITY           SKY/WX    TMP DP  RH WIND       PRES   REMARKS
GALLUP         CLEAR     18  13  80 CALM      30.30S
GRANTS         CLEAR     14  12  91 NW3       30.32S
SILVER CITY    CLEAR     27  14  59 NW8       30.24R WCI  18

$$
NMZ407-409-411-412-051200-
SOUTHERN DESERTS

CITY           SKY/WX    TMP DP  RH WIND       PRES   REMARKS
LORDSBURG      FAIR      32  27  80 S12       30.23R WCI  23
DEMING         CLEAR     33  24  69 E18       30.28R WCI  22
LAS CRUCES     CLEAR     30  26  86 W5        30.30R WCI  25
HOLLOMAN AFB   CLEAR     29  23  78 SE10      30.32R WCI  20
ALAMOGORDO     CLEAR     28  25  86 S12       30.34R WCI  18
T OR C         CLEAR     27  19  72 N10       30.30R WCI  17

$$
NMZ519>523-051200-
CENTRAL VALLEYS/CENTRAL HIGHLANDS

CITY           SKY/WX    TMP DP  RH WIND       PRES   REMARKS
ALBUQUERQUE    CLEAR     25  18  74 N5        30.33S WCI  19
DOUBLE EAGLE   CLEAR     21  16  81 N8        30.32R WCI  11
MORIARTY ARPT  CLOUDY    19  15  82 S3        30.32S
CLINES CORNERS CLOUDY    18  14  84 W9        30.24S WCI   7
BELEN          FAIR      24  19  81 CALM      30.33S
SOCORRO          N/A     25  19  77 CALM      30.33S

$$
NMZ524>526-539-540-051200-
SOUTHCENTRAL MOUNTAINS

CITY           SKY/WX    TMP DP  RH WIND       PRES   REMARKS
RUIDOSO        FOG       14  12  92 CALM      30.30S VSB 1/2

$$
NMZ527>531-051200-
NORTHEAST HIGHLANDS/NORTHEAST PLAINS

CITY           SKY/WX    TMP DP  RH WIND       PRES   REMARKS
LAS VEGAS      FOG       13  12  96 SW3       30.26R VSB 3/4
RATON          MOCLDY    -2  -5  87 N7        30.27S WCI -15
CLAYTON        CLEAR     11   7  84 SW12      30.30F WCI  -3

$$
NMZ532>537-051200-
EASTCENTRAL PLAINS

CITY           SKY/WX    TMP DP  RH WIND       PRES   REMARKS
TUCUMCARI      CLEAR     15  12  88 W3        30.40F
CANNON AFB     CLOUDY    22  16  78 W2        30.40S
CLOVIS AIRPORT MOCLDY    18  14  86 N5        30.40S WCI  11

$$
NMZ028-029-538-051200-
SOUTHEAST PLAINS

CITY           SKY/WX    TMP DP  RH WIND       PRES   REMARKS
ROSWELL        CLOUDY    26  21  81 N3        30.45R
ARTESIA        CLOUDY    25  25 100 CALM      30.48R
CARLSBAD       CLOUDY    28  21  75 N6        30.47S WCI  22
HOBBS          CLOUDY    25  18  74 N10       30.45S WCI  15


$$



USA.gov is the U.S. government's official web portal to all federal, state and local government web resources and services.